Weather History for Milk River, Alberta

Change the Weather History Date:

Friday, February 7, 2014

  Actual Average Record
Temperature  
Mean Temperature -8 °F -  
Max Temperature 10 °F - - ()
Min Temperature -26 °F - - ()
Degree Days  
Heating Degree Days 73    
Moisture  
Dew Point -14 °F    
Average Humidity 66    
Maximum Humidity 82    
Minimum Humidity 34    
Precipitation  
Precipitation 0.18 in - - ()
Sea Level Pressure  
Sea Level Pressure 30.03 in    
Wind  
Wind Speed 6 mph ()    
Max Wind Speed 14 mph    
Max Gust Speed -    
T = Trace of Precipitation, MM = Missing Value Source: Averaged Metar Reports

Daily Weather History Graph

Daily Weather History Graph

Search for Another Location

Airport:

Trip Planner

Search our weather history database for the weather conditions in past years. The results will help you decide how hot, cold, wet, or windy it might be!

Date:

Astronomy

Feb. 07, 2014 Rise Set
Actual Time 7:50 AM MST 5:35 PM MST
Civil Twilight 7:16 AM MST 6:08 PM MST
Nautical Twilight 6:38 AM MST 6:46 PM MST
Astronomical Twilight 6:02 AM MST 7:23 PM MST
Moon 11:43 AM MST (2/7) 2:14 AM MST (2/7)
Length of Visible Light 10h 52m
Length of Day
9h 45m
First Quarter, 60% of the Moon is Illuminated
Feb 7
First Quarter
Feb 14
Full
Feb 22
Last Quarter
Mar 1
New
Mar 8
First Quarter

Hourly Weather History & Observations

Time (MST) Temp. Windchill Dew Point Humidity Pressure Visibility Wind Dir Wind Speed Gust Speed Precip Events Conditions
12:00 AM -19.3 °F -32.4 °F -25.8 °F 72% 30.06 in - South 4.6 mph - N/A   Unknown
1:00 AM -20.2 °F -37.3 °F -26.3 °F 73% 30.03 in - South 6.9 mph - N/A   Unknown
2:00 AM -19.5 °F -37.9 °F -25.8 °F 73% 30.01 in - SSW 8.1 mph - N/A   Unknown
3:00 AM -19.1 °F -32.2 °F -25.2 °F 73% 29.99 in - SSW 4.6 mph - N/A   Unknown
4:00 AM -23.1 °F -34.2 °F -29.9 °F 70% 29.99 in - SW 3.5 mph - N/A   Unknown
5:00 AM -26 °F - -33 °F 55% 29.99 in - NW 5.8 mph - -  
5:00 AM -26.1 °F -42.6 °F -32.6 °F 71% 29.99 in - NW 5.8 mph - N/A   Unknown
6:00 AM -21.6 °F -32.6 °F -28.8 °F 69% 29.99 in - WNW 3.5 mph - N/A   Unknown
7:00 AM -18.0 °F -28.5 °F -25.6 °F 68% 29.98 in - WNW 3.5 mph - N/A   Unknown
8:00 AM -13.2 °F -30.2 °F -20.9 °F 68% 29.97 in - WNW 8.1 mph - N/A   Unknown
9:00 AM -7.1 °F - -16.6 °F 63% 29.97 in - NW 2.3 mph - N/A   Unknown
10:00 AM -1.7 °F - -10.3 °F 67% 29.97 in - NNW 2.3 mph - N/A   Unknown
11:00 AM 4 °F - -10 °F 34% 29.97 in - West 3.5 mph - -  
11:00 AM 4.5 °F -2.7 °F -10.5 °F 50% 29.97 in - West 3.5 mph - N/A   Unknown
12:00 PM 5.7 °F -4.8 °F -7.4 °F 55% 29.98 in - NW 5.8 mph - N/A   Unknown
1:00 PM 10.6 °F -0.2 °F -6.2 °F 47% 29.99 in - NNW 6.9 mph - N/A   Unknown
2:00 PM 10.6 °F -2.2 °F -1.7 °F 58% 29.98 in - NNW 9.2 mph - N/A   Unknown
3:00 PM 8.6 °F -6.3 °F -3.3 °F 59% 30.00 in - NNW 11.5 mph - N/A   Unknown
4:00 PM 6.3 °F -10.7 °F -3.1 °F 65% 30.04 in - NNW 13.8 mph - N/A   Unknown
5:00 PM 6 °F - -3 °F 54% 30.06 in - NNW 11.5 mph - -  
5:00 PM 6.1 °F -9.5 °F -2.7 °F 67% 30.06 in - NNW 11.5 mph - N/A   Unknown
6:00 PM 3.6 °F -11.8 °F -4.4 °F 70% 30.09 in - NNW 10.4 mph - N/A   Unknown
7:00 PM 3.6 °F -12.6 °F -3.8 °F 71% 30.10 in - NW 11.5 mph - N/A   Unknown
8:00 PM 1.6 °F -14.2 °F -4.2 °F 77% 30.11 in - NNW 10.4 mph - N/A   Unknown
9:00 PM 1.4 °F -13.5 °F -4.0 °F 78% 30.12 in - NW 9.2 mph - N/A   Unknown
10:00 PM -0.8 °F -18.9 °F -5.6 °F 80% 30.13 in - NW 12.7 mph - N/A   Unknown
11:00 PM -3 °F - -8 °F 71% 30.13 in - NNW 12.7 mph - -  
11:00 PM -3.5 °F -22.3 °F -7.6 °F 82% 30.13 in - NNW 12.7 mph - N/A   Unknown